Location: *
(57.8420°S, 159.8600°W)
Time: 04:59:56
(UTC+00:00)

deb Chang Zheng 4 - Pass Details

Date: 18 May 2021
Orbit: 597 x 622 km, 98.6° (Epoch: 20 June)

Event Time Altitude Azimuth Distance (km) Brightness Sun altitude
Exits shadow 04:35:45 16° 152° (SSE) 1,671 5.4 -16.5°
Maximum altitude 04:39:09 53° 78° (ENE) 783 3.7 -16.9°
Drops below altitude 10° 04:43:27 10° 0° (N) 2,014 6.3 -17.5°
Sets 04:45:41 0° 355° (N) 2,915 7.2 -17.8°
